Location: Detroit
(42.3310°N, 83.0460°W)
Time: 00:57:58
(UTC-05:00)

Vanguard 1 Rocket - Visible Passes

Search period start: 06 February 2023 00:00
Search period end: 16 February 2023 00:00
Orbit: 651 x 4224 km, 34.3° (Epoch: 05 February)

Date Brightness Start Highest point End Pass type
(mag) Time Alt. Az. Time Alt. Az. Time Alt. Az.
06 Feb 11.8 18:38:53 10° W 18:55:53 33° SW 19:16:56 10° SSE visible
07 Feb 12.1 19:58:27 10° W 20:11:12 18° SW 20:25:15 10° SSW visible
08 Feb 12.0 18:42:20 10° W 18:57:38 27° SW 19:16:38 10° S visible
09 Feb 12.3 20:05:32 10° WSW 20:12:57 12° SW 20:20:51 10° SSW visible
10 Feb 12.1 18:46:25 10° W 18:59:31 21° SW 19:15:29 10° S visible
12 Feb 12.3 18:51:47 10° WSW 19:01:29 15° SW 19:12:48 10° SSW visible
